Flag for Canada Weather past 2 weeks in Richmond, British Columbia, Canada

Now
43 °F

Overcast.


Feels Like: 40 °F
Forecast: 44 / 47 °F
Wind: 5 mph from Northeast

Location: Vancouver International Air-Port

Current Time: Dec 22, 2014 at 7:23:32 PM

Latest Report: Dec 22, 2014 at 7:00 PM


Visibility: 15 mi

Pressure: 30.38 "Hg

Humidity: 87%

Dew point: 39 °F

Location of RichmondLocation

Historic Weather in Richmond — Graph

°F

Richmond temperature yesterday

Maximum temperature yesterday: 50 °F (at 2:00 PM)
Minimum temperature yesterday: 39 °F (at 8:00 AM)
Average temperature yesterday: 45 °F

Past Weeks' High & Low Weather Summary

 TemperatureHumidityPressure
High59 °F (Dec 9, 1:00 PM)100% (Dec 7, 6:00 PM)30.38 "Hg (Dec 7, 6:00 PM)
Low28 °F (Dec 15, 4:00 AM)66% (Dec 15, 1:00 PM)29.15 "Hg (Dec 11, 6:00 PM)
Average46 °F88%29.81 "Hg
* Reported Dec 7 6:00 PM — Dec 22 6:00 PM, Richmond, Weather by CustomWeather, © 2014

Note: Actual official high and low records may vary slightly from our data, if they occured in-between our weather recording intervals... More about our weather records

Advertising

Richmond weather history for previous 24 hours

 ConditionsComfort  
Time TempWeatherWind HumidityBarometerVisibility
6:00 PM
Dec 22
43 °FMostly cloudy.3 mph93%30.38 "Hg15 mi
5:00 PM41 °FPassing clouds.3 mph93%30.38 "Hg12 mi
4:00 PM43 °FPartly sunny.8 mph93%30.38 "Hg12 mi
3:00 PM43 °FLow clouds.6 mph93%30.38 "Hg10 mi
2:00 PM43 °FMostly cloudy.5 mph93%30.37 "Hg10 mi
1:00 PM43 °FOvercast.5 mph93%30.37 "Hg8 mi
12:00 PM43 °FCloudy.5 mph93%30.36 "Hg8 mi
11:00 AM43 °FCloudy.7 mph93%30.35 "Hg10 mi
10:00 AM41 °FBroken clouds.5 mph93%30.35 "Hg15 mi
9:00 AM41 °FBroken clouds.3 mph93%30.32 "Hg20 mi
8:00 AM43 °FPassing clouds.10 mph93%30.28 "Hg20 mi
7:00 AM41 °FPassing clouds.9 mph93%30.24 "Hg20 mi
6:00 AM43 °FClear.8 mph87%30.22 "Hg15 mi
5:00 AM43 °FClear.13 mph93%30.19 "Hg15 mi
4:00 AM43 °FClear.13 mph93%30.17 "Hg15 mi
3:00 AM43 °FClear.14 mph93%30.15 "Hg15 mi
2:00 AM43 °FClear.12 mph93%30.13 "Hg15 mi
1:00 AM43 °FClear.7 mph93%30.10 "Hg15 mi
12:00 AM41 °FClear.3 mph93%30.08 "Hg15 mi
11:00 PM
Dec 21
45 °FPassing clouds.10 mph81%30.06 "Hg15 mi
10:00 PM46 °FPassing clouds.2 mph76%30.03 "Hg15 mi
9:00 PM46 °FPassing clouds.No wind82%30.01 "Hg15 mi
8:00 PM48 °FOvercast.No wind76%30.00 "Hg15 mi
7:00 PM45 °FMostly cloudy.6 mph93%29.99 "Hg15 mi
Weather by CustomWeather, © 2014

See weather overviewHow to use our weather pages